AEHF-1 (USA 214)

Last updated on Sun Oct 06 2024 00:02:39 GMT+0000 (Coordinated Universal Time)

1 36868U 10039A 24279.54558469 .00000158 00000+0 00000+0 0 9996 2 36868 6.6566 75.8957 0003146 93.0597 65.8921 1.00422174 47441
UTC large
Height (km)
Speed (km/s)
/
Latitude / Longitude
Inclination (degrees)
Orbital Period (minutes)
Azimuth
Elevation
Range (km)
Doppler Factor

Next 0 passes for location: London (51.5072 / 0.1276)

Sorry there are no passes over London.